When you browse on this site, cookies collect data to enhance your experience and personalize the content and advertising you see.
Visit our Privacy Policy to learn more. By continuing to use the site, you agree to this use of cookies and data.
  • en Suisse
  • Liste des pays
  • À 7 jours
  • Température de l'eau
  • Carte satellitaire
  • Carte météo
  • Widgets météo
  • user-avatar
    Se connecter

    Météo par heure à Ganja

    Ce jour, 20 Mai, Lundi

    Heure Température Précipitation Vent Pression Humidité
    00:00 +23°C° 1.1 mm 1 m/s 722 mmHg 63%
    01:00 +23°C° 0.4 mm 1 m/s 722 mmHg 64%
    02:00 +22°C° 0.4 mm 1 m/s 722 mmHg 66%
    03:00 +21°C° 0 mm 2 m/s 722 mmHg 65%
    04:00 +21°C° 0.4 mm 2 m/s 722 mmHg 66%
    05:00 +21°C° 0.4 mm 2 m/s 722 mmHg 67%
    06:00 +21°C° 0.4 mm 2 m/s 722 mmHg 68%
    07:00 +23°C° 0.2 mm 2 m/s 722 mmHg 64%
    08:00 +24°C° 0.2 mm 2 m/s 722 mmHg 60%
    09:00 +25°C° 0.2 mm 2 m/s 722 mmHg 56%
    10:00 +26°C° 0.7 mm 3 m/s 722 mmHg 55%
    11:00 +27°C° 0.7 mm 3 m/s 722 mmHg 53%
    12:00 +27°C° 0.7 mm 4 m/s 722 mmHg 52%
    13:00 +27°C° 1.7 mm 4 m/s 722 mmHg 53%
    14:00 +28°C° 1.7 mm 4 m/s 722 mmHg 54%
    15:00 +28°C° 1.7 mm 4 m/s 722 mmHg 55%
    16:00 +27°C° 1.2 mm 4 m/s 722 mmHg 58%
    17:00 +26°C° 1.2 mm 4 m/s 722 mmHg 60%
    18:00 +26°C° 1.2 mm 3 m/s 723 mmHg 63%
    19:00 +25°C° 0.9 mm 4 m/s 723 mmHg 64%
    20:00 +22°C° 0.9 mm 4 m/s 724 mmHg 65%
    21:00 +21°C° 0.9 mm 4 m/s 724 mmHg 66%
    22:00 +20°C° 0.5 mm 4 m/s 724 mmHg 68%
    23:00 +20°C° 0.5 mm 3 m/s 725 mmHg 69%

    Demain, 21 Mai, Mardi

    Heure Température Précipitation Vent Pression Humidité
    00:00 +19°C° 0.5 mm 3 m/s 725 mmHg 71%
    01:00 +19°C° 0 mm 2 m/s 725 mmHg 72%
    02:00 +18°C° 0 mm 2 m/s 725 mmHg 73%
    03:00 +18°C° 0 mm 2 m/s 725 mmHg 74%
    04:00 +18°C° 0 mm 2 m/s 726 mmHg 73%
    05:00 +19°C° 0 mm 1 m/s 726 mmHg 72%
    06:00 +19°C° 0 mm 1 m/s 726 mmHg 71%
    07:00 +19°C° 0 mm 2 m/s 726 mmHg 65%
    08:00 +20°C° 0 mm 2 m/s 727 mmHg 59%
    09:00 +21°C° 0 mm 3 m/s 727 mmHg 53%
    10:00 +22°C° 0.1 mm 3 m/s 727 mmHg 51%
    11:00 +24°C° 0.1 mm 3 m/s 727 mmHg 48%
    12:00 +25°C° 0.1 mm 3 m/s 727 mmHg 46%
    13:00 +25°C° 0 mm 4 m/s 727 mmHg 44%
    14:00 +26°C° 0 mm 4 m/s 727 mmHg 43%
    15:00 +26°C° 0 mm 4 m/s 727 mmHg 42%
    16:00 +26°C° 0 mm 4 m/s 727 mmHg 44%
    17:00 +25°C° 0 mm 4 m/s 727 mmHg 47%
    18:00 +25°C° 0 mm 4 m/s 727 mmHg 49%
    19:00 +22°C° 0 mm 4 m/s 728 mmHg 51%
    20:00 +21°C° 0 mm 4 m/s 728 mmHg 53%
    21:00 +20°C° 0 mm 3 m/s 728 mmHg 55%
    22:00 +19°C° 0 mm 3 m/s 728 mmHg 57%
    23:00 +18°C° 0 mm 3 m/s 728 mmHg 58%

    Après-demain, 22 Mai, Mercredi

    Heure Température Précipitation Vent Pression Humidité
    00:00 +18°C° 0 mm 3 m/s 728 mmHg 60%
    01:00 +17°C° 0 mm 3 m/s 728 mmHg 61%
    02:00 +16°C° 0 mm 2 m/s 728 mmHg 63%
    03:00 +16°C° 0 mm 2 m/s 728 mmHg 65%
    04:00 +16°C° 0 mm 1 m/s 728 mmHg 64%
    05:00 +16°C° 0 mm 1 m/s 728 mmHg 63%
    06:00 +16°C° 0 mm 1 m/s 728 mmHg 62%
    07:00 +18°C° 0 mm 1 m/s 727 mmHg 59%
    08:00 +19°C° 0 mm 2 m/s 727 mmHg 56%
    09:00 +20°C° 0 mm 2 m/s 727 mmHg 52%
    10:00 +20°C° 0 mm 2 m/s 726 mmHg 51%
    11:00 +21°C° 0 mm 3 m/s 725 mmHg 50%
    12:00 +22°C° 0 mm 3 m/s 725 mmHg 48%
    13:00 +22°C° 0.1 mm 3 m/s 724 mmHg 48%
    14:00 +24°C° 0.1 mm 2 m/s 724 mmHg 47%
    15:00 +24°C° 0.1 mm 2 m/s 724 mmHg 47%
    16:00 +24°C° 0.2 mm 2 m/s 724 mmHg 49%
    17:00 +23°C° 0.2 mm 2 m/s 724 mmHg 52%
    18:00 +23°C° 0.2 mm 2 m/s 724 mmHg 54%
    19:00 +20°C° 1.4 mm 2 m/s 724 mmHg 62%
    20:00 +19°C° 1.4 mm 2 m/s 725 mmHg 70%
    21:00 +18°C° 1.4 mm 2 m/s 725 mmHg 78%
    22:00 +18°C° 0 mm 2 m/s 725 mmHg 79%
    23:00 +17°C° 0 mm 2 m/s 725 mmHg 79%

    23 Mai, Jeudi

    Heure Température Précipitation Vent Pression Humidité
    00:00 +17°C° 0 mm 2 m/s 725 mmHg 79%
    01:00 +17°C° 0 mm 3 m/s 725 mmHg 79%
    02:00 +16°C° 0 mm 3 m/s 724 mmHg 79%
    03:00 +16°C° 0 mm 3 m/s 724 mmHg 79%
    04:00 +16°C° 0 mm 3 m/s 724 mmHg 76%
    05:00 +17°C° 0 mm 3 m/s 724 mmHg 74%
    06:00 +17°C° 0 mm 3 m/s 724 mmHg 72%
    07:00 +19°C° 0 mm 4 m/s 724 mmHg 65%
    08:00 +21°C° 0 mm 4 m/s 724 mmHg 58%
    09:00 +22°C° 0 mm 5 m/s 724 mmHg 52%
    10:00 +23°C° 0 mm 5 m/s 724 mmHg 47%
    11:00 +25°C° 0 mm 4 m/s 724 mmHg 43%
    12:00 +27°C° 0 mm 4 m/s 723 mmHg 38%
    13:00 +27°C° 0 mm 4 m/s 723 mmHg 37%
    14:00 +27°C° 0 mm 3 m/s 723 mmHg 36%
    15:00 +28°C° 0 mm 3 m/s 723 mmHg 36%
    16:00 +27°C° 0 mm 3 m/s 723 mmHg 37%
    17:00 +27°C° 0 mm 3 m/s 723 mmHg 39%
    18:00 +26°C° 0 mm 3 m/s 723 mmHg 40%
    19:00 +24°C° 0 mm 2 m/s 724 mmHg 42%
    20:00 +22°C° 0 mm 1 m/s 724 mmHg 43%
    21:00 +19°C° 0 mm 0 m/s 725 mmHg 45%
    22:00 +20°C° 0 mm 1 m/s 725 mmHg 48%
    23:00 +19°C° 0 mm 1 m/s 725 mmHg 50%

    24 Mai, Vendredi

    Heure Température Précipitation Vent Pression Humidité
    00:00 +19°C° 0 mm 1 m/s 725 mmHg 53%
    01:00 +18°C° 0 mm 1 m/s 725 mmHg 58%
    02:00 +18°C° 0 mm 1 m/s 725 mmHg 62%
    03:00 +16°C° 0 mm 1 m/s 725 mmHg 67%
    04:00 +18°C° 0 mm 1 m/s 725 mmHg 65%
    05:00 +18°C° 0 mm 1 m/s 726 mmHg 63%
    06:00 +18°C° 0 mm 2 m/s 726 mmHg 61%
    07:00 +19°C° 0 mm 2 m/s 726 mmHg 56%
    08:00 +20°C° 0 mm 2 m/s 725 mmHg 52%
    09:00 +21°C° 0 mm 2 m/s 725 mmHg 47%
    10:00 +23°C° 0 mm 2 m/s 725 mmHg 46%
    11:00 +24°C° 0 mm 2 m/s 725 mmHg 44%
    12:00 +25°C° 0 mm 2 m/s 724 mmHg 43%
    13:00 +26°C° 0 mm 2 m/s 724 mmHg 42%
    14:00 +27°C° 0 mm 2 m/s 724 mmHg 41%
    15:00 +27°C° 0 mm 2 m/s 723 mmHg 41%
    16:00 +27°C° 0 mm 2 m/s 724 mmHg 43%
    17:00 +27°C° 0 mm 2 m/s 724 mmHg 46%
    18:00 +27°C° 0 mm 2 m/s 724 mmHg 48%
    19:00 +25°C° 0 mm 2 m/s 725 mmHg 51%
    20:00 +24°C° 0 mm 1 m/s 725 mmHg 54%
    21:00 +23°C° 0 mm 1 m/s 725 mmHg 58%
    22:00 +23°C° 0 mm 1 m/s 725 mmHg 57%
    23:00 +21°C° 0 mm 2 m/s 725 mmHg 56%

    25 Mai, Samedi

    Heure Température Précipitation Vent Pression Humidité
    00:00 +20°C° 0 mm 2 m/s 725 mmHg 56%
    01:00 +21°C° 0 mm 1 m/s 725 mmHg 57%
    02:00 +21°C° 0 mm 1 m/s 725 mmHg 58%
    03:00 +20°C° 0 mm 1 m/s 725 mmHg 58%
    04:00 +21°C° 0 mm 1 m/s 725 mmHg 57%
    05:00 +21°C° 0 mm 1 m/s 725 mmHg 56%
    06:00 +22°C° 0 mm 1 m/s 725 mmHg 55%
    07:00 +23°C° 0 mm 1 m/s 725 mmHg 51%
    08:00 +24°C° 0 mm 2 m/s 725 mmHg 46%
    09:00 +26°C° 0 mm 2 m/s 725 mmHg 42%
    10:00 +27°C° 0 mm 2 m/s 724 mmHg 40%
    11:00 +28°C° 0 mm 2 m/s 724 mmHg 39%
    12:00 +30°C° 0 mm 2 m/s 723 mmHg 37%
    13:00 +31°C° 0 mm 2 m/s 723 mmHg 36%
    14:00 +32°C° 0 mm 2 m/s 723 mmHg 35%
    15:00 +34°C° 0 mm 2 m/s 723 mmHg 34%
    16:00 +32°C° 0 mm 2 m/s 723 mmHg 37%
    17:00 +31°C° 0 mm 2 m/s 723 mmHg 41%
    18:00 +30°C° 0 mm 2 m/s 723 mmHg 44%
    19:00 +29°C° 0.1 mm 2 m/s 723 mmHg 47%
    20:00 +28°C° 0.1 mm 2 m/s 724 mmHg 50%
    21:00 +26°C° 0.1 mm 2 m/s 724 mmHg 53%
    22:00 +26°C° 0 mm 2 m/s 724 mmHg 54%
    23:00 +25°C° 0 mm 3 m/s 724 mmHg 55%
    Voir plus